Wind_Speed
11 9 8 7 6 4 4 4 5 5 4 4 3 2 1 1 3 4 4 5 5 4 3 2 2 2 2 2 2 3 4 5 6 7 7 8 8 9 10 10 10 10
13 12 11 9 8 7 6 6 6 6 6 6 6 5 4 3 1 1 3 4 6 6 6 5 4 3 3 3 2 2 1 2 3 4 4 5 6 7 8 9 10 11
15 15 13 12 11 10 10 9 8 8 8 8 8 8 6 5 4 3 0 2 3 5 6 6 6 6 6 5 5 4 4 3 3 3 4 4 4 5 6 6 7 8
18 17 16 15 14 13 13 12 11 10 10 9 10 10 10 8 7 6 4 3 1 2 3 4 5 6 7 7 6 6 6 5 5 5 5 5 5 6 6 6 6 6
20 19 19 18 17 16 16 15 14 13 12 12 12 12 13 11 10 9 8 7 6 4 3 3 3 4 5 6 7 7 7 7 7 7 7 7 7 7 7 7 7 7
23 22 21 21 20 20 20 18 17 16 16 15 15 14 14 14 12 12 11 11 10 8 7 6 5 5 5 5 5 6 7 7 8 8 8 8 8 9 9 9 9 9
27 26 25 24 24 23 22 21 20 20 19 18 18 17 16 16 15 15 14 13 13 13 11 9 8 8 8 7 6 7 7 8 9 9 9 9 9 9 10 10 11 11
30 30 29 28 28 27 25 25 24 23 22 22 21 21 20 19 18 18 16 15 15 16 15 14 12 11 11 11 10 10 9 9 10 11 11 11 11 11 10 10 12 13
35 34 32 30 30 30 29 28 26 26 26 25 25 24 23 22 22 20 19 18 17 17 18 17 16 15 15 15 15 14 13 13 13 13 14 14 13 14 13 13 14 15
34 36 35 32 32 32 32 31 29 28 29 28 27 27 26 26 24 23 23 22 20 19 19 19 19 19 19 18 18 18 18 17 16 16 17 17 16 16 17 17 18 18
32 34 35 34 33 33 34 34 33 32 32 31 28 28 28 29 29 27 26 25 24 22 22 22 22 23 23 22 21 22 21 20 20 20 20 19 20 20 20 20 20 21
31 32 34 34 33 33 33 33 32 31 32 32 30 30 30 32 33 32 31 30 28 27 26 26 26 27 26 25 24 24 23 23 25 25 24 24 23 22 21 21 22 22
28 26 28 31 33 32 29 27 27 28 29 30 31 30 31 33 34 35 34 33 32 32 31 31 30 31 29 27 26 27 25 25 26 26 25 25 24 24 24 25 25 25
24 24 26 29 31 31 26 24 26 28 29 31 30 28 31 33 32 33 34 34 34 35 35 34 34 33 32 30 30 30 29 28 27 26 25 26 26 26 28 29 29 28
21 23 24 26 28 29 27 26 27 27 26 26 25 25 29 29 28 31 33 34 36 37 38 38 37 36 36 35 33 32 32 31 30 29 28 28 28 29 30 30 30 31
21 22 22 23 25 26 26 26 27 28 27 27 25 25 27 26 27 32 34 35 37 39 39 40 40 39 38 37 36 35 34 32 32 32 31 30 31 31 32 33 33 34
26 26 26 27 27 28 29 29 30 31 31 31 30 29 29 29 31 33 34 35 37 38 37 37 38 39 37 36 36 36 35 34 35 34 33 32 33 33 34 36 37 37
31 31 31 31 31 31 31 31 32 33 34 34 33 33 34 34 35 35 35 35 36 37 37 36 38 39 37 35 36 35 35 37 36 35 34 34 34 35 35 37 38 40
32 32 31 31 31 31 32 31 31 32 33 33 33 33 34 36 37 37 37 36 36 37 38 38 40 41 37 35 35 34 34 36 36 36 36 36 36 36 37 38 39 41
30 30 30 30 31 31 32 31 30 30 31 31 32 32 33 34 36 36 36 35 35 37 38 39 42 43 39 36 35 35 34 34 36 38 38 37 38 40 40 41 41 41
28 28 29 29 30 31 31 31 30 30 31 31 32 33 33 33 34 34 34 34 33 34 35 37 41 42 38 35 35 36 35 35 38 40 39 39 41 42 42 42 41 41
28 28 28 29 29 30 31 31 31 31 31 32 32 33 34 34 34 33 33 33 33 33 36 39 40 39 35 34 35 35 36 37 39 41 40 40 42 42 41 41 41 41
29 29 30 31 31 31 31 32 32 32 32 32 33 33 34 35 35 34 32 32 32 34 38 41 39 36 35 35 35 35 36 37 39 40 40 41 41 41 41 40 40 39
29 29 30 31 31 32 33 33 34 34 35 35 35 35 35 34 35 35 33 31 32 36 39 39 36 35 36 35 35 35 36 38 39 40 40 40 40 40 40 39 38 38
30 30 31 31 32 32 33 34 35 35 36 37 37 37 36 35 33 33 32 33 36 38 38 36 34 35 36 35 35 35 36 37 38 38 38 38 39 40 40 39 38 39
34 35 35 35 35 35 36 36 36 36 37 38 38 39 38 36 33 32 33 36 37 36 36 35 35 35 35 35 35 35 35 35 36 36 37 38 39 39 39 38 38 39
Wind_Direction
242 248 258 268 272 272 266 265 276 284 282 276 271 276 306 30 60 65 60 55 51 45 38 3 337 324 304 292 278 272 268 269 271 271 271 270 267 264 264 264 263 262
241 246 252 262 268 268 262 260 268 279 284 285 282 278 278 287 314 54 63 60 55 48 47 42 33 27 25 22 20 7 337 303 293 289 286 280 273 268 264 263 263 262
242 246 248 254 262 268 269 267 266 271 278 283 285 284 281 279 279 275 294 61 56 47 44 44 40 36 35 34 32 28 21 11 358 344 335 326 316 304 289 279 272 269
242 245 248 252 258 262 267 269 269 270 271 273 275 280 281 280 279 276 269 270 299 16 22 28 34 33 31 29 27 26 19 12 5 360 353 344 337 333 326 317 306 293
241 243 245 250 255 259 262 265 269 272 273 271 269 273 277 278 278 277 273 271 269 269 293 322 346 3 13 14 12 12 11 6 1 0 359 352 346 341 334 328 323 319
236 240 241 244 248 252 257 260 264 268 271 273 271 270 271 273 274 273 272 271 268 265 267 278 292 307 322 334 343 347 349 350 350 350 351 352 350 346 339 331 326 323
233 235 236 238 240 244 250 255 258 261 264 267 269 269 268 269 270 269 268 267 266 267 267 267 273 284 292 296 302 310 317 323 328 331 333 337 339 338 337 334 329 324
239 237 235 235 237 239 241 246 250 254 256 259 261 264 265 266 268 268 268 269 269 271 270 269 269 271 276 281 283 285 289 297 305 310 313 318 321 322 323 325 326 323
242 242 241 240 240 241 240 241 244 247 250 252 255 258 261 263 265 266 269 270 271 273 274 274 274 273 273 275 277 277 279 283 290 295 300 303 306 309 310 312 315 315
247 244 244 244 243 244 245 244 244 245 248 250 252 256 260 262 264 265 267 268 271 275 277 277 278 277 277 277 277 279 281 283 286 289 292 294 296 299 302 304 307 308
252 246 244 246 247 249 251 250 248 248 250 252 254 260 265 267 267 267 266 267 270 274 276 278 279 280 280 281 281 282 284 287 290 291 291 292 294 296 298 300 302 303
250 242 238 242 247 252 257 259 256 252 253 255 257 260 264 265 267 266 266 268 270 272 273 274 276 279 282 284 284 285 286 289 291 290 288 288 290 293 295 296 298 299
249 243 240 243 249 253 255 259 260 257 255 253 253 255 259 262 264 264 265 268 270 270 270 270 272 278 283 285 285 287 288 287 287 288 287 284 284 289 293 293 293 293
250 248 246 248 255 262 263 262 263 260 254 249 247 249 253 257 262 265 267 270 272 270 269 269 271 276 281 282 282 285 288 286 285 288 289 287 285 287 290 290 289 289
258 255 253 254 260 266 268 268 270 270 269 265 262 258 257 260 265 267 267 268 269 268 267 268 270 272 275 278 280 282 285 283 281 285 289 288 287 287 286 286 287 287
268 266 266 267 267 267 266 267 270 273 276 278 276 270 267 268 268 267 267 266 266 265 264 264 266 268 271 276 279 280 280 277 277 283 285 284 285 286 285 285 286 287
275 273 272 272 272 272 270 269 269 270 270 272 272 271 270 269 266 265 266 266 267 267 265 265 268 271 273 276 276 276 276 275 277 281 280 278 280 282 283 285 286 287
278 277 276 274 274 273 271 269 268 269 270 270 270 271 271 271 269 268 268 267 268 270 269 270 273 276 276 275 274 274 275 276 278 278 276 275 277 279 280 283 285 286
277 278 277 276 275 274 273 271 270 269 270 270 271 272 272 272 272 271 270 269 269 270 271 272 272 273 274 274 274 273 274 275 276 276 275 275 276 277 279 281 282 284
273 275 275 275 275 275 275 275 274 273 273 274 275 275 274 274 274 274 272 270 270 271 272 272 271 271 273 274 274 273 273 273 273 274 274 275 276 277 279 280 280 280
268 268 269 270 271 272 273 274 275 275 275 276 276 276 276 276 275 275 274 272 271 272 273 272 272 274 277 276 273 272 272 271 272 273 274 274 276 277 278 279 279 279
271 271 270 270 271 271 272 273 274 274 274 275 275 276 276 276 275 274 274 273 272 272 272 272 273 276 278 276 273 271 270 270 271 272 273 273 275 277 277 278 278 278
275 275 275 275 275 276 276 277 277 276 276 275 275 275 275 276 276 274 273 273 272 270 269 271 275 277 276 273 271 271 269 269 270 271 272 272 274 275 276 277 278 279
274 275 277 277 278 279 279 279 279 279 278 277 277 276 276 276 276 275 274 272 269 268 270 274 276 276 273 272 271 270 269 269 270 271 271 272 274 275 277 278 279 281
271 273 275 277 280 281 280 279 279 278 278 277 277 277 276 276 276 276 274 270 267 268 272 275 275 273 272 271 270 269 269 269 271 271 271 273 274 276 278 280 283 285
271 273 275 276 279 281 281 281 280 278 277 276 276 275 275 275 273 271 269 269 270 271 272 273 272 272 271 269 267 267 267 268 270 270 270 272 274 276 279 282 284 286
Height
3118 3118 3118 3118 3118 3118 3118 3118 3118 3118 3118 3118 3118 3118 3118 3118 3118 3117 3117 3117 3117 3116 3116 3116 3115 3115 3115 3115 3115 3115 3115 3115 3115 3115 3115 3116 3116 3116 3116 3116 3117 3117
3117 3117 3118 3118 3118 3118 3118 3118 3118 3118 3118 3118 3118 3118 3118 3118 3118 3118 3117 3117 3117 3116 3116 3116 3116 3115 3115 3115 3115 3115 3115 3115 3115 3115 3115 3115 3115 3115 3115 3116 3116 3116
3115 3116 3116 3117 3117 3117 3117 3117 3117 3117 3117 3117 3117 3117 3117 3117 3117 3117 3117 3117 3117 3116 3116 3116 3116 3116 3115 3115 3115 3115 3115 3115 3115 3115 3115 3115 3115 3115 3115 3115 3115 3115
3113 3114 3114 3115 3115 3115 3115 3115 3116 3116 3116 3116 3116 3116 3116 3116 3116 3116 3117 3116 3116 3116 3116 3116 3116 3116 3115 3115 3115 3114 3114 3114 3114 3114 3114 3114 3114 3114 3114 3114 3115 3115
3111 3112 3112 3113 3113 3113 3113 3114 3114 3114 3114 3114 3115 3115 3115 3115 3115 3115 3116 3116 3115 3115 3115 3115 3115 3115 3115 3115 3115 3114 3114 3114 3114 3114 3114 3114 3113 3113 3113 3113 3114 3114
3109 3109 3110 3110 3111 3111 3111 3112 3112 3112 3112 3112 3113 3113 3113 3113 3114 3114 3114 3114 3114 3114 3115 3115 3114 3114 3114 3114 3114 3114 3114 3114 3113 3113 3113 3113 3113 3113 3113 3112 3112 3113
3106 3106 3107 3107 3108 3108 3109 3109 3110 3110 3110 3110 3110 3111 3111 3111 3112 3112 3112 3113 3113 3113 3113 3114 3114 3114 3114 3113 3113 3113 3113 3113 3113 3112 3112 3112 3112 3112 3112 3112 3112 3112
3104 3104 3104 3104 3105 3106 3106 3106 3107 3107 3108 3108 3108 3108 3108 3109 3109 3110 3110 3111 3111 3112 3112 3112 3113 3113 3113 3112 3112 3112 3112 3112 3111 3111 3111 3111 3111 3111 3111 3112 3111 3111
3103 3103 3102 3102 3103 3104 3104 3104 3104 3104 3105 3105 3105 3106 3106 3106 3107 3107 3108 3109 3109 3110 3110 3110 3111 3111 3111 3111 3111 3111 3111 3111 3110 3110 3110 3109 3109 3109 3109 3109 3110 3109
3099 3100 3100 3101 3101 3102 3102 3102 3102 3102 3103 3103 3103 3103 3103 3104 3104 3104 3105 3105 3106 3107 3108 3108 3108 3108 3109 3109 3109 3109 3109 3109 3110 3109 3109 3108 3108 3108 3107 3107 3107 3107
3094 3096 3097 3098 3098 3099 3099 3099 3099 3100 3101 3101 3102 3102 3102 3102 3102 3102 3102 3102 3103 3104 3105 3105 3106 3106 3106 3107 3107 3107 3108 3108 3108 3108 3108 3107 3107 3106 3106 3105 3105 3105
3090 3090 3091 3093 3095 3095 3095 3095 3096 3096 3097 3099 3100 3099 3099 3098 3099 3099 3100 3100 3100 3101 3102 3102 3102 3102 3103 3104 3105 3105 3106 3106 3105 3106 3106 3105 3105 3104 3104 3103 3103 3102
3087 3086 3086 3088 3091 3091 3091 3090 3091 3092 3093 3094 3095 3094 3094 3095 3095 3095 3096 3097 3098 3098 3098 3098 3098 3098 3099 3101 3102 3102 3103 3103 3102 3102 3102 3102 3102 3102 3101 3101 3101 3100
3085 3085 3085 3086 3087 3088 3087 3086 3086 3087 3088 3087 3087 3088 3089 3089 3091 3092 3093 3094 3095 3094 3093 3093 3094 3095 3096 3097 3099 3099 3099 3099 3099 3099 3099 3099 3099 3099 3098 3097 3097 3097
3084 3084 3084 3085 3085 3085 3084 3084 3082 3082 3082 3081 3082 3084 3084 3084 3086 3088 3090 3091 3091 3091 3089 3089 3090 3091 3092 3093 3095 3096 3096 3096 3095 3095 3096 3095 3095 3095 3094 3094 3093 3093
3081 3082 3082 3082 3083 3083 3083 3082 3081 3081 3080 3079 3080 3081 3082 3082 3083 3084 3086 3087 3087 3087 3086 3085 3085 3087 3089 3091 3091 3092 3092 3091 3091 3092 3092 3091 3091 3091 3090 3090 3090 3089
3078 3079 3079 3079 3080 3080 3080 3080 3079 3079 3079 3078 3078 3079 3079 3080 3080 3081 3082 3083 3082 3082 3082 3082 3081 3082 3086 3088 3088 3088 3087 3087 3087 3088 3088 3087 3087 3087 3086 3086 3085 3085
3074 3074 3075 3075 3076 3076 3076 3076 3076 3076 3076 3076 3076 3076 3076 3076 3077 3078 3079 3079 3079 3078 3078 3079 3078 3078 3081 3083 3083 3084 3083 3082 3083 3083 3083 3083 3083 3082 3082 3082 3081 3081
3070 3070 3070 3070 3071 3071 3072 3072 3073 3073 3072 3072 3072 3073 3073 3072 3072 3073 3074 3075 3075 3074 3074 3075 3074 3074 3077 3079 3079 3079 3079 3079 3079 3078 3078 3079 3078 3078 3078 3078 3077 3076
3066 3066 3066 3066 3066 3067 3067 3067 3068 3068 3068 3068 3068 3068 3069 3068 3069 3069 3069 3070 3070 3070 3069 3070 3068 3069 3073 3074 3074 3074 3075 3075 3074 3073 3073 3074 3074 3073 3073 3073 3072 3071
3063 3063 3063 3063 3063 3063 3063 3063 3063 3064 3064 3064 3064 3064 3064 3065 3065 3065 3065 3065 3065 3066 3065 3063 3062 3064 3068 3069 3069 3069 3070 3069 3068 3067 3068 3069 3068 3068 3068 3067 3067 3066
3059 3059 3059 3059 3060 3060 3060 3060 3060 3060 3060 3060 3060 3060 3060 3060 3060 3061 3060 3060 3061 3061 3060 3058 3058 3061 3063 3063 3063 3064 3064 3064 3063 3063 3064 3064 3063 3063 3063 3062 3061 3060
3055 3055 3054 3055 3055 3055 3055 3055 3055 3056 3056 3056 3056 3056 3056 3056 3056 3056 3056 3057 3057 3056 3054 3054 3055 3057 3058 3058 3058 3059 3059 3058 3058 3058 3059 3058 3058 3058 3057 3056 3056 3055
3051 3051 3050 3050 3050 3051 3051 3051 3051 3051 3051 3051 3052 3052 3052 3052 3051 3051 3052 3052 3051 3050 3049 3050 3052 3052 3052 3053 3053 3053 3053 3053 3053 3053 3053 3053 3053 3052 3051 3050 3050 3050
3047 3047 3047 3047 3047 3047 3047 3047 3047 3047 3047 3047 3047 3047 3047 3047 3047 3047 3046 3045 3045 3045 3045 3046 3047 3046 3047 3047 3047 3048 3048 3048 3049 3049 3048 3048 3047 3046 3046 3045 3045 3045
3043 3042 3042 3042 3042 3042 3042 3042 3042 3042 3042 3042 3042 3042 3043 3043 3042 3042 3041 3040 3040 3041 3041 3041 3041 3041 3041 3041 3042 3043 3043 3044 3044 3044 3043 3043 3042 3042 3041 3041 3041 3040